Location: *
(43.0409°N, 0.1694°E)
Time: 12:14:07
(UTC+00:00)

Cosmos 2315 Rocket - Pass Details

Date: 03 October 2023
Orbit: 966 x 1002 km, 82.9° (Epoch: 01 December)

Event Time Altitude Azimuth Distance (km) Brightness Sun altitude
Rises 03:22:55 0° 349° (NNW) 3,733 7.2 -28.6°
Reaches altitude 10° 03:25:28 10° 346° (NNW) 2,781 6.5 -28.2°
Enters shadow 03:31:17 62° 291° (WNW) 1,120 4.0 -27.2°
